STARLINK-35337 (65831 NORAD) Tracking and Keplerian Element Data

This shows tracking and keplerian element data for the satellite.

Feedback or suggestion? Click here.




ElementValue
Catalog65831
NameSTARLINK-35337
Epoch Orbit1388
Epoch Day354.00195864
Epoch Year2025
RAAN98.4277
Inclination53.1587
Eccentricity0.0001675
Argument of Perigee87.6749
Mean Anonmoly272.4443
Mean Motion15.30193387
Decay Rate0.00016987
L11 65831U 25221J 25354.00195864 .00016987 00000+0 58445-3 0 9996
L22 65831 53.1587 98.4277 0001675 87.6749 272.4443 15.30193387 13887



Live tracking and technical data element details for STARLINK-35337 (NORAD 65831). STARLINK-35337 can be tracked NOW for your location showing map with azimuth and elevation plus other details from your city location.







IsCatalogInMostPopularTable: catalog: 65831, numindb: 3
Update: records affected: 1



GetName: 65831 STARLINK-35337

Hit Count: updated at: Mon, 09 Feb 2026 09:34:52 GMT